Погода в Солнечном-1

Россия / Иркутская область     52°11′44″N   104°28′11″E
темп.,
°C
ветер,
м/с
пор.,
м/с
влажн.,
%
обл.,
%
осадки,
мм/ч
давл.,
гПа
погр.,
м
26 февраля, пт
пт2623:00−11ююв2391100 0.0 101156
02:00−9зсз61293100 0.1 1017749
05:00−11зсз41095100 0.5 1019669
08:00−11сз41095100 1.1 1022688
11:00−11сз5892100 0.6 1021736
14:00−11сз5891100 1.4 1019862
17:00−13сз61088100 0.4 1021928
20:00−16зсз51092100 0.6 1025676
27 февраля, сб
сб2723:00−17сз51192100 0.4 1029679
02:00−21зсз389797 0.5 1032221
05:00−25сз119988 0.0 103520
08:00−24з1110094 0.1 103720
11:00−19зсз2391100 0.2 1038458
14:00−15зсз1278100 0.3 1036840
17:00−16ссз117698 0.0 1035580
20:00−22в118877 0.0 103820
28 февраля, вс
вс2823:00−24вюв118827 0.0 104020
02:00−26вюв118414 0.0 104120
05:00−26вюв11811 0.0 104119
08:00−26вюв12871 0.0 104219
11:00−17ю248567 0.0 1041400
14:00−14зсз217981 0.0 1038586
17:00−14ссз228464 0.0 1038316
20:00−21ююв119670 0.0 104020
1 марта, пн
пн123:00−22юв229680 0.0 104121
02:00−23вюв229147 0.0 103920
05:00−24юв22890 0.0 103822
08:00−24юв22900 0.0 103724
11:00−15ююв25820 0.0 1033305
14:00−10ю35770 0.0 1028430
17:00−9ююв35760 0.0 1025333
20:00−16ююв228635 0.0 102539
2 марта, вт
вт223:00−17юв2285100 0.0 102442
02:00−19ююв238987 0.0 102234
05:00−19юв229354 0.0 102127
08:00−20юв229350 0.0 102129
11:00−12ююв238312 0.0 1018301
14:00−6ююв127719 0.0 1015449
17:00−7ююв248595 0.0 1013338
20:00−13ююв129097 0.0 101444